[[{"header":{"parameterUnit":"m.s-1","parameterCategory":1,"la1":30.2991,"la2":30.254,"lo1":-89.0895,"lo2":-89.0444,"dy":0.0017,"dx":0.0017,"nx":28,"ny":28,"refTime":"2025-08-31T09:00:00:Z","depth":0,"parameterNumber":2,"parameterNumberName":"U-component_of_WINDS"},"data":[0,0,0,0,0,0,0,0,0,0,0,0,0,0,0,0,0,0,0,0,0,0,0,0,0,0,0,0,0,0,0,0,0,0,0,0,0,0,0,0,0,0,0,0,0,0,0,0,0,0,0,0,0,0,0,0,0,0,-1.3149,-1.3151,0,-1.3325,-1.3327,-1.3329,-1.3398,-1.3398,-1.3397,-1.3397,-1.3579,-1.3584,-1.3589,0,0,0,0,0,0,0,0,0,0,0,0,0,-1.287,-1.2875,-1.3148,-1.3151,-1.3153,-1.3325,-1.3328,-1.333,-1.3398,-1.3398,-1.3397,-1.3396,-1.3577,-1.3583,-1.359,0,0,0,0,0,0,0,0,0,0,0,0,0,-1.3013,-1.2876,-1.3148,-1.3208,-1.3215,-1.3325,-1.3328,-1.3331,-1.3398,-1.3398,-1.3397,-1.3396,-1.3575,-1.3583,-1.3591,-1.3654,0,0,-1.3615,-1.3618,0,0,0,0,0,0,0,0,-1.3005,-1.3023,-1.3197,-1.3204,-1.3212,-1.3339,-1.3296,-1.3439,-1.3399,-1.3329,-1.3397,-1.3396,-1.35,-1.3514,-1.3549,-1.3663,-1.3671,-1.3616,-1.362,-1.3624,-1.3626,0,0,0,0,0,0,0,-1.2995,-1.3016,-1.3219,-1.3199,-1.3209,-1.3226,-1.3245,-1.3324,-1.3416,-1.3335,-1.334,-1.336,-1.3504,-1.3541,-1.3553,-1.3673,-1.3615,-1.3622,-1.3627,-1.363,-1.3848,-1.3849,0,0,0,0,0,0,-1.2975,-1.3008,-1.3213,-1.3224,-1.3105,-1.3231,-1.3253,-1.3299,-1.3416,-1.3433,-1.3361,-1.3363,-1.3527,-1.3544,-1.356,-1.3642,-1.3624,-1.3631,-1.3636,-1.3847,-1.3848,-1.3849,0,0,0,0,0,0,-1.2969,-1.2993,-1.3206,-1.3117,-1.3146,-1.3237,-1.3288,-1.3303,-1.334,-1.3435,-1.3452,-1.3381,-1.3528,-1.3549,-1.363,-1.3649,-1.3635,-1.3642,-1.3846,-1.3847,-1.3849,-1.3806,0,0,0,0,0,0,-1.2961,-1.299,-1.3015,-1.3117,-1.315,-1.3273,-1.3289,-1.3307,-1.3353,-1.3358,-1.3459,-1.3475,-1.3529,-1.3618,-1.3638,-1.366,-1.3648,-1.3844,-1.3846,-1.3848,-1.3806,-1.3806,-1.3805,0,0,0,0,0,-1.2951,-1.2997,-1.3016,-1.3041,-1.3184,-1.3274,-1.3293,-1.3353,-1.3355,-1.3381,-1.3442,-1.3472,-1.3644,-1.3626,-1.3649,-1.3673,-1.3843,-1.3846,-1.3848,-1.3806,-1.3806,-1.3805,0,0,0,0,0,0,-1.2896,-1.3011,-1.3034,-1.3115,-1.3184,-1.3285,-1.332,-1.3351,-1.3421,-1.3422,-1.3494,-1.3517,-1.3592,-1.3641,-1.3619,-1.3741,-1.3746,-1.3753,-1.3706,-1.3706,-1.3706,-1.3693,-1.3655,0,0,0,0,0,-1.2893,-1.2956,-1.3054,-1.3116,-1.3149,-1.3228,-1.327,-1.331,-1.3385,-1.3414,-1.3481,-1.3552,-1.3623,-1.3667,-1.3737,-1.3813,-1.3836,-1.3842,-1.3841,-1.384,-1.3846,-1.3889,-1.3892,-1.3857,-1.3857,-1.3857,0,0,-1.2888,-1.2959,-1.2995,-1.3106,-1.3165,-1.3228,-1.3252,-1.3319,-1.3367,-1.3425,-1.3505,-1.3557,-1.3641,-1.3719,-1.3758,-1.3763,-1.386,-1.3843,-1.3842,-1.3848,-1.3891,-1.3895,-1.3898,-1.3858,-1.3858,-1.3858,0,0,-1.2912,-1.2972,-1.3029,-1.3087,-1.3174,-1.3226,-1.324,-1.3337,-1.3373,-1.3454,-1.3498,-1.3557,-1.3676,-1.3734,-1.3779,-1.3822,-1.3853,-1.3843,-1.3842,-1.3883,-1.3886,-1.3889,-1.3904,-1.3908,-1.3848,-1.3848,-1.3848,0,-1.2895,-1.2993,-1.3055,-1.3119,-1.3167,-1.3221,-1.3279,-1.3332,-1.3438,-1.3469,-1.3474,-1.3623,-1.3684,-1.3777,-1.3787,-1.3822,-1.3839,-1.3832,-1.388,-1.3884,-1.3887,-1.3902,-1.3908,-1.3846,-1.3846,-1.3847,-1.3847,0,-1.2967,-1.3034,-1.307,-1.317,-1.3221,-1.3282,-1.3354,-1.3399,-1.3434,-1.3486,-1.3568,-1.3642,-1.3727,-1.3752,-1.3788,-1.385,-1.385,-1.3866,-1.3873,-1.3888,-1.3903,-1.391,-1.3844,-1.3844,-1.3845,-1.3845,0,0,-1.2962,-1.3094,-1.3106,-1.3152,-1.3252,-1.3305,-1.3368,-1.345,-1.3487,-1.3558,-1.3612,-1.3711,-1.3726,-1.3777,-1.382,-1.3856,-1.3885,-1.3868,-1.3871,-1.3868,-1.3957,-1.3943,-1.3949,-1.3905,-1.3907,-1.3908,-1.3949,0,-1.2998,-1.3113,-1.3171,-1.3261,-1.3323,-1.3374,-1.3429,-1.3496,-1.3545,-1.3606,-1.3661,-1.3729,-1.3745,-1.3775,-1.3813,-1.3873,-1.3904,-1.3871,-1.3957,-1.3959,-1.3934,-1.3958,-1.3944,-1.398,-1.3956,-1.3957,-1.3958,0,-1.3057,-1.3126,-1.3221,-1.3312,-1.3341,-1.3389,-1.3469,-1.3526,-1.3602,-1.3636,-1.3692,-1.3733,-1.3801,-1.3802,-1.3897,-1.3873,-1.3912,-1.3946,-1.3949,-1.396,-1.3959,-1.3968,-1.3993,-1.3998,-1.3968,-1.3967,-1.3966,0,-1.3042,-1.3159,-1.3232,-1.3269,-1.3377,-1.341,-1.3457,-1.3533,-1.3578,-1.3648,-1.3678,-1.3755,-1.3797,-1.3856,-1.3917,-1.3912,-1.4005,-1.4011,-1.4034,-1.4033,-1.4052,-1.405,-1.4083,-1.4077,-1.4077,-1.4076,-1.4076,0,-1.3077,-1.3133,-1.3226,-1.3271,-1.3335,-1.3401,-1.3463,-1.3514,-1.358,-1.3635,-1.3685,-1.3735,-1.3813,-1.3873,-1.3921,-1.3992,-1.401,-1.4039,-1.4051,-1.4035,-1.4031,-1.4061,-1.406,-1.4078,-1.4078,-1.4077,-1.4077,0,-1.3072,-1.3137,-1.3219,-1.3314,-1.3339,-1.3382,-1.3464,-1.3509,-1.356,-1.3629,-1.3649,-1.373,-1.3804,-1.387,-1.3968,-1.4,-1.4072,-1.4087,-1.4045,-1.4052,-1.4071,-1.4068,-1.4124,-1.4135,-1.4121,-1.4121,-1.4121,0,-1.309,-1.3134,-1.3234,-1.3273,-1.3319,-1.3383,-1.343,-1.3495,-1.3542,-1.3632,-1.3665,-1.3742,-1.3807,-1.3922,-1.3989,-1.4064,-1.4082,-1.4096,-1.4093,-1.4075,-1.4081,-1.4078,-1.4082,-1.4095,-1.4095,-1.4095,-1.4095,0,-1.3114,-1.3143,-1.3208,-1.3284,-1.3337,-1.34,-1.3465,-1.3495,-1.3573,-1.3622,-1.3698,-1.3748,-1.3847,-1.3922,-1.4004,-1.4053,-1.4087,-1.4095,-1.4104,-1.4088,-1.4061,-1.4075,-1.4043,-1.4093,-1.4094,-1.4094,-1.4094,-1.4094,-1.3121,-1.3162,-1.3238,-1.3308,-1.3364,-1.3422,-1.3469,-1.3526,-1.3589,-1.3674,-1.3709,-1.3785,-1.386,-1.3974,-1.4022,-1.4082,-1.4089,-1.4103,-1.4106,-1.4108,-1.4105,-1.4052,-1.4098,-1.4098,-1.4098,-1.4098,-1.4098,0,-1.3147,-1.3198,-1.3262,-1.335,-1.3405,-1.3431,-1.3504,-1.3548,-1.3614,-1.3681,-1.3743,-1.3829,-1.3902,-1.3975,-1.4052,-1.4086,-1.4104,-1.4104,-1.4102,-1.4113,-1.4095,-1.4079,-1.4089,-1.4089,-1.4089,-1.4089,-1.4089,-1.4089,-1.3167,-1.3238,-1.3276,-1.3375,-1.3426,-1.3501,-1.3539,-1.3594,-1.3647,-1.374,-1.3801,-1.3848,-1.3917,-1.3999,-1.4067,-1.4087,-1.4113,-1.4109,-1.4132,-1.4114,-1.4114,-1.4114,-1.41,-1.4114,-1.4114,-1.4146,-1.4146,-1.4146]},{"header":{"parameterUnit":"m.s-1","parameterCategory":1,"la1":30.2991,"la2":30.254,"lo1":-89.0895,"lo2":-89.0444,"dy":0.0017,"dx":0.0017,"nx":28,"ny":28,"refTime":"2025-08-31T09:00:00:Z","depth":0,"parameterNumber":3,"parameterNumberName":"V-component_of_WINDS"},"data":[0,0,0,0,0,0,0,0,0,0,0,0,0,0,0,0,0,0,0,0,0,0,0,0,0,0,0,0,0,0,0,0,0,0,0,0,0,0,0,0,0,0,0,0,0,0,0,0,0,0,0,0,0,0,0,0,0,0,-1.47,-1.4702,0,-1.4855,-1.4857,-1.4859,-1.4938,-1.4938,-1.4938,-1.4938,-1.5094,-1.5098,-1.5102,0,0,0,0,0,0,0,0,0,0,0,0,0,-1.4468,-1.4472,-1.47,-1.4702,-1.4704,-1.4855,-1.4857,-1.4859,-1.4938,-1.4938,-1.4938,-1.4938,-1.5093,-1.5097,-1.5102,0,0,0,0,0,0,0,0,0,0,0,0,0,-1.459,-1.4473,-1.4699,-1.4761,-1.4768,-1.4855,-1.4857,-1.486,-1.4938,-1.4938,-1.4938,-1.4938,-1.5091,-1.5097,-1.5103,-1.5139,0,0,-1.5122,-1.5124,0,0,0,0,0,0,0,0,-1.4583,-1.4599,-1.475,-1.4757,-1.4765,-1.4877,-1.4833,-1.4953,-1.4938,-1.4873,-1.4938,-1.4938,-1.5022,-1.5033,-1.5062,-1.5146,-1.5153,-1.5122,-1.5126,-1.5129,-1.513,0,0,0,0,0,0,0,-1.4575,-1.4592,-1.4761,-1.4752,-1.4761,-1.478,-1.4798,-1.4856,-1.4945,-1.4879,-1.4885,-1.4903,-1.5026,-1.5056,-1.5067,-1.5155,-1.5122,-1.5128,-1.5131,-1.5134,-1.5276,-1.5276,0,0,0,0,0,0,-1.4557,-1.4585,-1.4756,-1.4766,-1.4673,-1.4784,-1.4804,-1.4841,-1.4945,-1.496,-1.4902,-1.4906,-1.5046,-1.5059,-1.5072,-1.5121,-1.5129,-1.5134,-1.5138,-1.5276,-1.5276,-1.5276,0,0,0,0,0,0,-1.4551,-1.4571,-1.475,-1.4677,-1.4701,-1.4788,-1.4829,-1.4844,-1.4875,-1.4962,-1.4978,-1.4917,-1.5046,-1.5064,-1.5122,-1.5128,-1.5137,-1.5143,-1.5276,-1.5276,-1.5276,-1.5219,0,0,0,0,0,0,-1.4544,-1.4569,-1.4584,-1.4677,-1.4705,-1.4798,-1.483,-1.4847,-1.4886,-1.4891,-1.4981,-1.4995,-1.5048,-1.5112,-1.5128,-1.5136,-1.5148,-1.5276,-1.5276,-1.5276,-1.5221,-1.5217,-1.5214,0,0,0,0,0,-1.4536,-1.4561,-1.4584,-1.4605,-1.4726,-1.4798,-1.4814,-1.4875,-1.4886,-1.4901,-1.4957,-1.4993,-1.5124,-1.5118,-1.5136,-1.5146,-1.5276,-1.5276,-1.5276,-1.5222,-1.5218,-1.5214,0,0,0,0,0,0,-1.4465,-1.4574,-1.4602,-1.4658,-1.4718,-1.4811,-1.4833,-1.4868,-1.4926,-1.4929,-1.5001,-1.502,-1.5071,-1.5115,-1.5105,-1.5186,-1.5204,-1.5207,-1.5156,-1.5153,-1.5149,-1.5138,-1.5153,0,0,0,0,0,-1.4457,-1.4507,-1.4599,-1.464,-1.4669,-1.4745,-1.4779,-1.4821,-1.4886,-1.4911,-1.4972,-1.5032,-1.5088,-1.5123,-1.5178,-1.5227,-1.5248,-1.5243,-1.524,-1.5237,-1.5239,-1.5268,-1.5267,-1.5277,-1.5277,-1.5277,0,0,-1.4438,-1.4504,-1.4532,-1.4627,-1.4679,-1.4729,-1.4766,-1.4817,-1.4855,-1.4919,-1.4978,-1.5024,-1.5097,-1.515,-1.5177,-1.5188,-1.5241,-1.5237,-1.5234,-1.5238,-1.5268,-1.5267,-1.5266,-1.5277,-1.5277,-1.5277,0,0,-1.4431,-1.4486,-1.4526,-1.4578,-1.4656,-1.4707,-1.4716,-1.4804,-1.4838,-1.4898,-1.4947,-1.4992,-1.5086,-1.5136,-1.5173,-1.5185,-1.5219,-1.52,-1.5183,-1.521,-1.521,-1.5209,-1.5213,-1.5214,-1.5203,-1.5203,-1.5202,0,-1.4398,-1.4477,-1.4542,-1.4591,-1.4631,-1.4692,-1.4733,-1.4779,-1.4871,-1.4897,-1.4908,-1.5027,-1.508,-1.5146,-1.5149,-1.5178,-1.519,-1.5191,-1.5205,-1.5205,-1.5206,-1.521,-1.5211,-1.52,-1.52,-1.52,-1.5201,0,-1.4432,-1.4486,-1.4508,-1.4597,-1.464,-1.4684,-1.4755,-1.479,-1.4828,-1.4877,-1.4938,-1.5004,-1.5074,-1.5093,-1.5129,-1.5164,-1.5168,-1.5191,-1.521,-1.5201,-1.5206,-1.5208,-1.5196,-1.5197,-1.5198,-1.5198,0,0,-1.4385,-1.4509,-1.4517,-1.4558,-1.4648,-1.469,-1.4737,-1.4806,-1.4835,-1.4896,-1.4937,-1.5015,-1.5036,-1.5079,-1.5122,-1.5146,-1.515,-1.5166,-1.5168,-1.516,-1.5192,-1.5174,-1.5175,-1.5173,-1.5174,-1.5175,-1.5186,0,-1.439,-1.4478,-1.4538,-1.4602,-1.4652,-1.4711,-1.4751,-1.481,-1.4858,-1.4906,-1.4958,-1.5012,-1.5036,-1.5062,-1.5089,-1.5144,-1.5157,-1.5144,-1.5211,-1.5213,-1.5191,-1.5178,-1.516,-1.5167,-1.5188,-1.5189,-1.5189,0,-1.4408,-1.4469,-1.4538,-1.4623,-1.4646,-1.4682,-1.4751,-1.4796,-1.4865,-1.4897,-1.4945,-1.4989,-1.5039,-1.5054,-1.5124,-1.5114,-1.5144,-1.5176,-1.5177,-1.5186,-1.52,-1.5186,-1.5171,-1.5172,-1.5193,-1.5193,-1.5192,0,-1.4366,-1.4465,-1.4519,-1.4552,-1.4654,-1.4677,-1.472,-1.4789,-1.4827,-1.4886,-1.4912,-1.4976,-1.5011,-1.5059,-1.5119,-1.5124,-1.5183,-1.5202,-1.5211,-1.5209,-1.5221,-1.5219,-1.521,-1.524,-1.524,-1.524,-1.524,0,-1.4366,-1.4405,-1.4502,-1.4535,-1.4581,-1.4649,-1.4693,-1.4741,-1.4801,-1.4844,-1.4898,-1.4937,-1.5014,-1.5062,-1.5109,-1.516,-1.5175,-1.5202,-1.5214,-1.5198,-1.5194,-1.5219,-1.522,-1.5241,-1.5241,-1.524,-1.524,0,-1.4327,-1.4393,-1.4456,-1.4547,-1.4571,-1.46,-1.4678,-1.4712,-1.4762,-1.4816,-1.4832,-1.491,-1.497,-1.5034,-1.5115,-1.5146,-1.5194,-1.5212,-1.5172,-1.5179,-1.5183,-1.5182,-1.519,-1.5194,-1.5221,-1.5221,-1.522,0,-1.4322,-1.4354,-1.4449,-1.4482,-1.4524,-1.4577,-1.4616,-1.4685,-1.4723,-1.4804,-1.4828,-1.4891,-1.4946,-1.5037,-1.5101,-1.5162,-1.5181,-1.518,-1.5191,-1.5173,-1.5181,-1.5178,-1.5182,-1.5176,-1.5176,-1.5175,-1.5175,0,-1.4306,-1.4337,-1.4393,-1.446,-1.4506,-1.4561,-1.4619,-1.4643,-1.4722,-1.4763,-1.4825,-1.4867,-1.495,-1.5012,-1.5081,-1.5125,-1.5163,-1.5171,-1.5176,-1.5159,-1.5135,-1.5148,-1.5162,-1.517,-1.5171,-1.5171,-1.5171,-1.5171,-1.4284,-1.4316,-1.4387,-1.4447,-1.4498,-1.4551,-1.4587,-1.4643,-1.4696,-1.4769,-1.4806,-1.4867,-1.4935,-1.5033,-1.5075,-1.5123,-1.5135,-1.5142,-1.5144,-1.5145,-1.5141,-1.5127,-1.5136,-1.5136,-1.5136,-1.5137,-1.5137,0,-1.4271,-1.432,-1.4375,-1.4455,-1.4501,-1.4535,-1.46,-1.4637,-1.469,-1.4751,-1.4804,-1.4874,-1.4935,-1.5003,-1.5068,-1.5093,-1.5112,-1.5108,-1.5107,-1.5116,-1.5126,-1.5115,-1.5092,-1.5092,-1.5092,-1.5092,-1.5092,-1.5092,-1.427,-1.4325,-1.4364,-1.4445,-1.4494,-1.4556,-1.459,-1.4639,-1.4687,-1.4764,-1.4815,-1.486,-1.4924,-1.4993,-1.505,-1.5069,-1.509,-1.508,-1.5103,-1.5112,-1.5115,-1.5119,-1.5109,-1.5084,-1.5084,-1.5089,-1.5089,-1.5089]}]]